Weather observations for the past three days for
Burlington Alamance Regional Airport
Imperial (Metric)
Date Time (edt) Wind (mph) Vis. (mi.) Weather Sky Cond. Temperature (ºF) Relative Humidity Wind Chill (°F) Heat Index (°F) Pressure Precipitation (in)
Air Dwpt 6 hour altimeter (in) sea level (mb) 1 hr 3 hr 6 hr
Max. Min.
20 10:54 S 7 10.00 Overcast FEW012 BKN025 OVC041 75.9 70 82% 77 30.11 1019.0
20 09:54 S 7 10.00 Overcast FEW014 OVC021 77 70 79% 79 30.11 1019.0
20 08:54 S 6 10.00 Mostly Cloudy BKN008 BKN026 75 71.1 88% 75 30.11 1019.0
20 07:54 SW 3 10.00 Overcast OVC004 73 71.1 73.9 71.1 94% 30.1 1018.6 0.01
20 06:54 S 5 7.00 Mostly Cloudy BKN007 72 71.1 97% 30.1 1018.5
20 05:54 SE 3 9.00 Light Rain SCT012 BKN055 BKN080 73 71.1 94% 30.09 1018.2 0.01
20 04:54 Calm 10.00 Overcast OVC012 73 71.1 94% 30.08 1017.8
20 03:54 Calm 7.00 Overcast FEW005 OVC011 73 72 96% 30.08 1017.8
20 02:54 Calm 9.00 Partly Cloudy SCT019 SCT110 73 71.1 94% 30.08 1017.9
20 01:54 Calm 8.00 Overcast FEW007 OVC014 73 72 77 73 96% 30.08 1017.9
20 00:54 E 3 10.00 Overcast OVC006 73.9 71.1 91% 30.1 1018.5
19 23:54 Calm 10.00 Overcast SCT006 BKN011 OVC100 73 71.1 94% 30.11 1019.0
19 22:54 Calm 10.00 Partly Cloudy SCT009 73.9 71.1 91% 30.12 1019.3
19 21:54 Calm 10.00 Partly Cloudy SCT016 73.9 70 88% 30.12 1019.1
19 20:54 Calm 10.00 Fair CLR 75 70 84% 75 30.1 1018.6
19 19:54 E 3 10.00 Partly Cloudy SCT120 77 71.1 87.1 77 82% 79 30.09 1018.1
19 18:54 SE 5 10.00 Overcast OVC100 78.1 72 82% 80 30.07 1017.7
19 17:54 E 5 10.00 Mostly Cloudy FEW011 BKN110 77 72 85% 78 30.07 1017.4
19 16:54 SE 6 10.00 Overcast FEW014 FEW047 OVC110 78.1 72 82% 80 30.06 1017.2
19 15:54 E 5 10.00 Overcast BKN041 OVC055 82.9 69.1 63% 87 30.06 1017.3
19 14:54 N 8 10.00 Mostly Cloudy SCT037 SCT045 BKN050 86 69.1 57% 90 30.08 1017.7
19 13:54 Vrbl 6 10.00 Mostly Cloudy SCT033 BKN041 84.9 71.1 84.9 73 63% 90 30.09 1018.2 0.03
19 12:54 NE 5 10.00 Partly Cloudy FEW031 SCT090 81 72 74% 85 30.11 1019.1 0.01
19 11:54 NE 5 4.00 Rain SCT026 BKN037 OVC060 77 71.1 82% 79 30.12 1019.2 0.02
19 10:54 E 6 10.00 Overcast BKN021 BKN028 OVC036 79 70 74% 82 30.11 1018.9
19 09:54 NE 6 10.00 Mostly Cloudy BKN028 77 69.1 77% 79 30.1 1018.7
19 08:54 N 6 10.00 Fair CLR 75.9 70 82% 77 30.1 1018.7
19 07:54 NE 3 10.00 Mostly Cloudy FEW011 BKN029 73.9 71.1 75 72 91% 30.09 1018.3
19 06:54 N 3 9.00 Mostly Cloudy BKN009 BKN013 72 71.1 97% 30.07 1017.5
19 05:54 N 5 9.00 Overcast OVC005 73 72 96% 30.04 1016.6
19 04:54 N 6 10.00 Mostly Cloudy BKN006 BKN013 73.9 72 94% 30.02 1015.8
19 03:54 Calm 9.00 Overcast FEW005 OVC012 73.9 73 97% 30.01 1015.4
19 02:54 Calm 7.00 Mostly Cloudy SCT006 BKN018 73.9 73 97% 30.02 1015.7
19 01:54 Calm 8.00 Mostly Cloudy SCT004 BKN085 73.9 73 77 73.9 97% 30.03 1016.1 0.02 0.02
19 00:54 SW 3 10.00 Mostly Cloudy BKN004 BKN090 73.9 72 94% 30.04 1016.4
18 23:54 Calm 9.00 A Few Clouds FEW090 73.9 73 97% 30.03 1016.1
18 22:54 SE 3 10.00 Mostly Cloudy FEW014 SCT019 BKN080 75 73 94% 73 30.03 1015.9
18 21:54 NE 3 10.00 Overcast OVC090 75 73.9 96% 73 30 1015.3
18 20:54 SE 3 10.00 Mostly Cloudy BKN070 75.9 73.9 94% 75 29.98 1014.5
18 19:54 SW 5 10.00 A Few Clouds FEW049 FEW065 77 73.9 91.9 77 90% 78 29.97 1014.1 0.05 0.05
18 18:54 SW 6 10.00 Light Rain FEW070 BKN110 79 73.9 85% 83 29.94 1013.1
18 17:54 SE 5 10.00 Overcast BKN049 OVC055 82 73.9 77% 88 29.92 1012.4
18 16:54 N 6 10.00 A Few Clouds FEW060 88 66.9 50% 91 29.91 1012.2
18 15:54 S 5 10.00 Partly Cloudy SCT055 SCT110 82.9 70 65% 87 29.92 1012.5
18 14:54 NW 8 G 18 5.00 Thunderstorm in Vicinity Haze FEW046 87.1 66 50% 89 29.93 1012.6
18 13:54 NW 9 10.00 Partly Cloudy SCT045 90 69.1 91 75 50% 95 29.95 1013.1
18 12:54 W 9 10.00 A Few Clouds FEW060 FEW070 88 71.1 57% 94 29.95 1013.4
18 11:54 SW 8 10.00 Fair CLR 86 73 65% 93 29.96 1013.6
18 10:54 SW 9 10.00 Fair CLR 82.9 73 72% 89 29.97 1013.9
18 09:54 Vrbl 5 10.00 A Few Clouds FEW013 81 73 77% 86 29.98 1014.3
18 08:54 SW 6 10.00 A Few Clouds FEW009 77 73 88% 78 29.97 1014.1
18 07:54 SW 3 10.00 A Few Clouds FEW110 75 71.1 79 73.9 88% 75 29.96 1013.8
18 06:54 S 3 10.00 Mostly Cloudy FEW012 SCT090 BKN110 73.9 71.1 91% 29.95 1013.5
18 05:54 Calm 10.00 Overcast OVC016 73.9 70 88% 29.94 1013.1
18 04:54 E 3 10.00 Fair CLR 73.9 70 88% 29.93 1012.5
18 03:54 S 3 10.00 Fair CLR 75.9 70 82% 77 29.93 1012.6
18 02:54 Calm 10.00 Fair CLR 77 70 79% 79 29.92 1012.4
18 01:54 Calm 10.00 Fair CLR 78.1 69.1 88 78.1 74% 80 29.93 1012.7
18 00:54 S 3 10.00 A Few Clouds FEW100 81 70 69% 84 29.95 1013.2
17 23:54 W 8 10.00 Mostly Cloudy BKN050 82.9 68 61% 86 29.95 1013.4
17 22:54 W 5 10.00 Partly Cloudy FEW095 SCT120 84 72 67% 90 29.95 1013.2
17 21:54 S 5 10.00 Fair CLR 84 72 67% 90 29.91 1012.0
17 20:54 S 3 10.00 Fair CLR 84.9 72 65% 91 29.91 1012.2
17 19:54 S 5 10.00 Fair CLR 88 71.1 93.9 88 57% 94 29.89 1011.4
17 18:54 S 9 10.00 Fair CLR 91 68 47% 95 29.87 1010.6
17 17:54 S 8 G 18 10.00 Fair CLR 93 70 47% 99 29.86 1010.3
17 16:54 S 9 10.00 Fair CLR 93 70 47% 99 29.87 1010.5
17 15:54 S 6 10.00 Fair CLR 93 70 47% 99 29.9 1011.4
17 14:54 Vrbl 7 10.00 A Few Clouds FEW048 91.9 72 52% 100 29.93 1012.4
17 13:54 Vrbl 6 10.00 Fair CLR 90 71.1 91 75.9 54% 96 29.93 1012.6
17 12:54 Calm 10.00 Fair CLR 89.1 72 57% 96 29.94 1013.1
17 11:54 SW 6 10.00 Fair CLR 87.1 73 63% 95 29.96 1013.6
Date Time (edt) Wind (mph) Vis. (mi.) Weather Sky Cond. Air Dwpt Max. Min. Relative Humidity Wind Chill (°F) Heat Index (°F) altimeter (in) sea level (mb) 1 hr 3 hr 6 hr
6 hour
Temperature (ºF) Pressure Precipitation (in)